DELTA 2 R/B, 40060

Orbit data source: Space-Track

DELTA 2 R/B, 40060 is space debris in HEO originally from a launch on Wed, 02 Jul 2014 UTC launched from the Air Force Western Test Range (AFWTR). Debris objects in space refer to the collection of defunct objects orbiting the Earth. Examples of debris include non-operational satellites, rocket bodies, and fragments generated from explosions, collisions, or faulty payload assembly.

Loading next visibility...
DELTA 2 R/B details
Identifier
40060, 2014-035B
Orbit
HEO
Last TLE update1 day ago
Origin
Flag of USBoeing/HB (US)
ManufacturerBoeing/Pueblo
MissionSpacecraft
Bus & MotorDELTA/0020, Unknown motor
Mass~924 kg wet, 924 kg dry
Launch date (UTC)
2014-07-02 (10 years ago)
Launch vehicleUnknown
Launch site
Air Force Western Test Range (AFWTR)
Object type
Payload
Rocket body
Debris
Shape & HBRCyl + Cone, 6 m
Radar Cross Section13.836 m², Large (>1 m²)

Expand to show TLE details & history

TLE from 1 day ago
0 DELTA 2 R/B
1 40060U 14035B   24360.24420136  .00000022  00000-0  00000-0 0  9994
2 40060  98.1958  10.1725 3074539  44.9828 336.2645  6.11239738233966
Epoch: 2024-12-25T05:51Z
Definitive object data (Epoch: 2024-12-25T05:51:38.997Z)
Latitude-0.00001°
Longitude-171.98212°
Altitude3,018.016 km
Speed7.302 km/s
True Right ascension00h 40m 41s
True Declination0° 00' 00"
Sunlit
Object was in daylight at TLE epoch
Visualization TLE readout
Latitude-76.79445°
Longitude-29.45205°
Altitude8,926.696 km
Speed4.539 km/s
Apparent Right ascension06h 06m 10s
Apparent Declination-73° 47' 23"
Sunlit
Object is in daylight
Visualization observer readout
Local Sidereal Time15:31:08
Azimuth196.321° SSW
Elevation-51.547°
Doppler factor1
Orbital elements
Apogee altitude10,139.788 km
Perigee altitude2,371.253 km
Semi-major axis12,633.658 km
Eccentricity0.3074539
Inclination98.1958°
RAAN10.1725°
Arg. of periapsis44.9828°
True anomaly315.13871°
Mean anomaly336.2645°
Eccentric anomaly326.55606°
Mean motion1.52844 °/min
BSTARUnknown
Orbital period235.53 mins
Loading maneuver chart data...
Loading historical data...
Loading historical data...
Loading historical data...
Loading historical data...
Loading historical data...
Loading historical data...
Loading historical data...
Other satellites on launch #35 in the year 2014 (2014-07-02 UTC)

DELTA 2 R/B Visibility forecast

Observer location: undefined°, undefined

Span
Click to sort rows by Start time (UTC) header in descending order
Start Az.
Max El. time (UTC)
Max El. Az.
Max El.
End time (UTC)
End Az.
18 mins2024-12-26 17:47:01.301Z351.46° N2024-12-26 17:55:01.301Z321.857° NNW15.009°2024-12-26 18:05:01.301Z295.523° NW
5 mins2024-12-26 21:28:01.301Z41.994° NE2024-12-26 21:30:01.301Z31.092° NE11.688°2024-12-26 21:33:01.301Z15.842° NNE
22 mins2024-12-27 01:06:01.301Z176.25° S2024-12-27 01:17:01.301Z257.766° W43.541°2024-12-27 01:28:01.301Z344.284° N
31 mins2024-12-27 09:43:01.301Z53.746° ENE2024-12-27 09:55:01.301Z83.254° E14.433°2024-12-27 10:14:01.301Z115.927° SE
61 mins2024-12-27 13:27:01.301Z12.36° NNE2024-12-27 13:45:01.301Z243.781° WSW44.999°2024-12-27 14:28:01.301Z203.58° SW
|